User: anonymous   Login
Location: Burzi?i
(45.0869°N, 16.0577°E)
Time: 11:40:40
(UTC+00:00)
Language:

GEOS 3 Rocket - Orbit

View from above orbital plane
View from above orbital plane
View from above satellite
View from above satellite

Ground track
Ground track

The orbit data is extracted from the following two-line orbital elements,

1  7735U 75027B   21023.18413640 -.00000140  00000-0  16171-4 0  9994
2  7735 114.9738 234.3714 0054649 252.6350 106.8748 14.24627199377682
Epoch (UTC): 23 January 2021 04:25:09
Eccentricity: 0.0054649
inclination: 114.9738°
perigee height: 770 km
apogee height: 849 km
right ascension of ascending node: 234.3714°
argument of perigee: 252.6350°
revolutions per day: 14.24627199
mean anomaly at epoch: 106.8748°
orbit number at epoch: 37768

The dashed part of the orbit path shows where the satellite is in the earth's shadow,  

DLR